,,Stat5,,Stat1,,Stat2,,Stat3,,Stat4,,Wind1,,Wind1,
time,status,PA1M_AVG,status,PR1M_SUM,status,RH1M_AVG,status,SR1M_AVG,status,TA1M_AVG,status,W1dAve1m,status,W1sAve1m,
2002-02-10, 00:00:00,VALID,918.236,VALID,0,VALID,97.2549,VALID,0,VALID,20.4946,VALID,134,VALID,0.95397,
2002-02-10, 00:01:00,VALID,918.212,VALID,0,VALID,97.41,VALID,0,VALID,20.4392,VALID,109,VALID,0.644848,
2002-02-10, 00:02:00,VALID,918.164,VALID,0,VALID,97.5168,VALID,0,VALID,20.4362,VALID,135,VALID,0.534007,
2002-02-10, 00:03:00,VALID,918.135,VALID,0,VALID,97.63,VALID,0,VALID,20.4268,VALID,154,VALID,0.479441,
2002-02-10, 00:04:00,VALID,918.098,VALID,0,VALID,97.6999,VALID,0,VALID,20.4138,VALID,123,VALID,0.258247,
2002-02-10, 00:05:00,VALID,918.061,VALID,0,VALID,97.7635,VALID,0,VALID,20.4106,VALID,90,VALID,0.163662,
2002-02-10, 00:06:00,VALID,918.039,VALID,0,VALID,97.8004,VALID,0,VALID,20.4106,VALID,90,VALID,0.23522,
2002-02-10, 00:07:00,VALID,918.035,VALID,0,VALID,97.8487,VALID,0,VALID,20.398,VALID,90,VALID,0.14926,
2002-02-10, 00:08:00,VALID,918.04,VALID,0,VALID,97.869,VALID,0,VALID,20.4014,VALID,91,VALID,0.258898,
2002-02-10, 00:09:00,VALID,918.051,VALID,0,VALID,97.9085,VALID,0,VALID,20.388,VALID,117,VALID,0.32728,
2002-02-10, 00:10:00,VALID,918.078,VALID,0,VALID,97.939,VALID,0,VALID,20.3679,VALID,123,VALID,0.27484,
2002-02-10, 00:11:00,VALID,918.091,VALID,0,VALID,97.9453,VALID,0,VALID,20.3783,VALID,135,VALID,0.447545,
2002-02-10, 00:12:00,VALID,918.1,VALID,0,VALID,97.9771,VALID,0,VALID,20.3589,VALID,136,VALID,0.566406,
2002-02-10, 00:13:00,VALID,918.1,VALID,0,VALID,98.0153,VALID,0,VALID,20.3557,VALID,135,VALID,0.534054,
2002-02-10, 00:14:00,VALID,918.091,VALID,0,VALID,98.0522,VALID,-0.0169808,VALID,20.3525,VALID,129,VALID,0.547092,
2002-02-10, 00:15:00,VALID,918.074,VALID,0,VALID,98.1043,VALID,0,VALID,20.3517,VALID,106,VALID,0.533923,
2002-02-10, 00:16:00,VALID,918.064,VALID,0,VALID,98.1564,VALID,0.0169808,VALID,20.3719,VALID,86,VALID,0.516927,
2002-02-10, 00:17:00,VALID,918.05,VALID,0,VALID,98.2073,VALID,0.0169808,VALID,20.3746,VALID,66,VALID,0.736545,
2002-02-10, 00:18:00,VALID,918.045,VALID,0,VALID,98.2225,VALID,0.0169808,VALID,20.4009,VALID,61,VALID,0.623998,
2002-02-10, 00:19:00,VALID,918.055,VALID,0,VALID,98.2086,VALID,0,VALID,20.4009,VALID,72,VALID,0.7375,
2002-02-10, 00:20:00,VALID,918.047,VALID,0,VALID,98.2238,VALID,0.0169808,VALID,20.3969,VALID,73,VALID,0.59185,
2002-02-10, 00:21:00,VALID,918.024,VALID,0,VALID,98.1819,VALID,0,VALID,20.4007,VALID,88,VALID,0.728125,
2002-02-10, 00:22:00,VALID,918.001,VALID,0,VALID,98.1615,VALID,0.0169808,VALID,20.3947,VALID,95,VALID,0.621311,
2002-02-10, 00:23:00,VALID,917.966,VALID,0,VALID,98.1755,VALID,-0.0169808,VALID,20.3915,VALID,96,VALID,0.637821,
2002-02-10, 00:24:00,VALID,917.929,VALID,0,VALID,98.178,VALID,-0.0169808,VALID,20.3977,VALID,97,VALID,0.538839,
2002-02-10, 00:25:00,VALID,917.911,VALID,0,VALID,98.1933,VALID,0.0169808,VALID,20.3945,VALID,93,VALID,0.502111,
2002-02-10, 00:26:00,VALID,917.903,VALID,0,VALID,98.159,VALID,0,VALID,20.4012,VALID,82,VALID,0.601339,
2002-02-10, 00:27:00,VALID,917.893,VALID,0,VALID,98.1704,VALID,0.0169808,VALID,20.4044,VALID,82,VALID,0.667318,
2002-02-10, 00:28:00,VALID,917.884,VALID,0,VALID,98.0712,VALID,0,VALID,20.3917,VALID,75,VALID,0.660807,
2002-02-10, 00:29:00,VALID,917.893,VALID,0,VALID,98.0789,VALID,0,VALID,20.3783,VALID,80,VALID,0.754774,
2002-02-10, 00:30:00,VALID,917.891,VALID,0,VALID,98.0572,VALID,0,VALID,20.3821,VALID,82,VALID,0.698602,
2002-02-10, 00:31:00,VALID,917.889,VALID,0,VALID,98.0394,VALID,0,VALID,20.3719,VALID,85,VALID,0.764106,
2002-02-10, 00:32:00,VALID,917.891,VALID,0,VALID,97.9924,VALID,0,VALID,20.3594,VALID,86,VALID,0.641493,
2002-02-10, 00:33:00,VALID,917.86,VALID,0,VALID,97.9962,VALID,0,VALID,20.3331,VALID,88,VALID,0.651242,
2002-02-10, 00:34:00,VALID,917.855,VALID,0,VALID,97.9835,VALID,0,VALID,20.3207,VALID,91,VALID,0.643527,
2002-02-10, 00:35:00,VALID,917.841,VALID,0,VALID,97.9708,VALID,0,VALID,20.2881,VALID,90,VALID,0.684544,
2002-02-10, 00:36:00,VALID,917.824,VALID,0,VALID,98.0178,VALID,0,VALID,20.2849,VALID,90,VALID,0.804018,
2002-02-10, 00:37:00,VALID,917.798,VALID,0,VALID,98.0458,VALID,0.0339617,VALID,20.2685,VALID,84,VALID,0.897352,
2002-02-10, 00:38:00,VALID,917.775,VALID,0,VALID,98.0789,VALID,0,VALID,20.2687,VALID,75,VALID,0.742788,
2002-02-10, 00:39:00,VALID,917.755,VALID,0,VALID,98.1106,VALID,0,VALID,20.269,VALID,69,VALID,0.738393,
2002-02-10, 00:40:00,VALID,917.739,VALID,0,VALID,98.103,VALID,0,VALID,20.2558,VALID,69,VALID,0.639569,
2002-02-10, 00:41:00,VALID,917.739,VALID,0,VALID,98.1412,VALID,-0.0169808,VALID,20.2593,VALID,78,VALID,0.787277,
2002-02-10, 00:42:00,VALID,917.727,VALID,0,VALID,98.1653,VALID,0,VALID,20.2558,VALID,82,VALID,0.729601,
2002-02-10, 00:43:00,VALID,917.748,VALID,0,VALID,98.2022,VALID,-0.0169808,VALID,20.2558,VALID,87,VALID,0.656901,
2002-02-10, 00:44:00,VALID,917.756,VALID,0,VALID,98.2315,VALID,-0.0169808,VALID,20.259,VALID,93,VALID,0.498047,
2002-02-10, 00:45:00,VALID,917.757,VALID,0,VALID,98.281,VALID,0.0169808,VALID,20.2725,VALID,138,VALID,0.586965,
2002-02-10, 00:46:00,VALID,917.75,VALID,0,VALID,98.337,VALID,0,VALID,20.2854,VALID,142,VALID,0.586589,
2002-02-10, 00:47:00,VALID,917.757,VALID,0,VALID,98.3421,VALID,0,VALID,20.301,VALID,133,VALID,0.376302,
2002-02-10, 00:48:00,VALID,917.743,VALID,0,VALID,98.3662,VALID,0,VALID,20.3207,VALID,158,VALID,0.426282,
2002-02-10, 00:49:00,VALID,917.726,VALID,0,VALID,98.3561,VALID,-0.0169808,VALID,20.3231,VALID,139,VALID,0.461607,
2002-02-10, 00:50:00,VALID,917.705,VALID,0,VALID,98.3764,VALID,-0.0169808,VALID,20.3468,VALID,134,VALID,0.396748,
2002-02-10, 00:51:00,VALID,917.685,VALID,0,VALID,98.3955,VALID,0,VALID,20.353,VALID,128,VALID,0.388616,
2002-02-10, 00:52:00,VALID,917.679,VALID,0,VALID,98.3917,VALID,-0.0169808,VALID,20.3694,VALID,131,VALID,0.177083,
2002-02-10, 00:53:00,VALID,917.677,VALID,0,VALID,98.398,VALID,0,VALID,20.3788,VALID,131,VALID,0,
2002-02-10, 00:54:00,VALID,917.674,VALID,0,VALID,98.4158,VALID,-0.0339617,VALID,20.3861,VALID,135,VALID,0.156696,
2002-02-10, 00:55:00,VALID,917.685,VALID,0,VALID,98.3828,VALID,0,VALID,20.3982,VALID,157,VALID,0.51478,
2002-02-10, 00:56:00,VALID,917.681,VALID,0,VALID,98.3179,VALID,0,VALID,20.388,VALID,147,VALID,0.6875,
2002-02-10, 00:57:00,VALID,917.697,VALID,0,VALID,98.2874,VALID,0,VALID,20.3659,VALID,153,VALID,0.66276,
2002-02-10, 00:58:00,VALID,917.7,VALID,0,VALID,98.309,VALID,-0.0169808,VALID,20.3594,VALID,145,VALID,0.507378,
2002-02-10, 00:59:00,VALID,917.705,VALID,0,VALID,98.3128,VALID,0,VALID,20.3659,VALID,142,VALID,0.58355,
2002-02-10, 01:00:00,VALID,917.694,VALID,0,VALID,98.2454,VALID,0,VALID,20.3498,VALID,144,VALID,0.904811,
2002-02-10, 01:01:00,VALID,917.702,VALID,0,VALID,98.2454,VALID,0.0339617,VALID,20.3269,VALID,151,VALID,0.819227,
2002-02-10, 01:02:00,VALID,917.703,VALID,0,VALID,98.2671,VALID,0,VALID,20.3145,VALID,161,VALID,0.696181,
2002-02-10, 01:03:00,VALID,917.699,VALID,0,VALID,98.2607,VALID,0,VALID,20.2948,VALID,151,VALID,0.586138,
2002-02-10, 01:04:00,VALID,917.688,VALID,0,VALID,98.2645,VALID,0.0169808,VALID,20.2851,VALID,149,VALID,0.513616,
2002-02-10, 01:05:00,VALID,917.668,VALID,0,VALID,98.2454,VALID,0,VALID,20.2757,VALID,140,VALID,0.532517,
2002-02-10, 01:06:00,VALID,917.641,VALID,0,VALID,98.2925,VALID,-0.0169808,VALID,20.2722,VALID,145,VALID,0.465625,
2002-02-10, 01:07:00,VALID,917.621,VALID,0,VALID,98.2442,VALID,0,VALID,20.266,VALID,144,VALID,0.409939,
2002-02-10, 01:08:00,VALID,917.601,VALID,0,VALID,98.2594,VALID,0,VALID,20.2464,VALID,141,VALID,0.409054,
2002-02-10, 01:09:00,VALID,917.576,VALID,0,VALID,98.248,VALID,0.0169808,VALID,20.2431,VALID,141,VALID,0.0696429,
2002-02-10, 01:10:00,VALID,917.567,VALID,0,VALID,98.2175,VALID,0,VALID,20.2205,VALID,122,VALID,0.277449,
2002-02-10, 01:11:00,VALID,917.566,VALID,0,VALID,98.1933,VALID,0,VALID,20.2076,VALID,115,VALID,0.230357,
2002-02-10, 01:12:00,VALID,917.557,VALID,0,VALID,98.2391,VALID,0,VALID,20.1947,VALID,137,VALID,0.283203,
2002-02-10, 01:13:00,VALID,917.553,VALID,0,VALID,98.2391,VALID,0.0169808,VALID,20.2046,VALID,145,VALID,0.234592,
2002-02-10, 01:14:00,VALID,917.546,VALID,0,VALID,98.2505,VALID,0,VALID,20.1907,VALID,146,VALID,0.200521,
2002-02-10, 01:15:00,VALID,917.53,VALID,0,VALID,98.2709,VALID,0,VALID,20.2041,VALID,150,VALID,0.166735,
2002-02-10, 01:16:00,VALID,917.523,VALID,0,VALID,98.2938,VALID,0,VALID,20.2066,VALID,150,VALID,0.046658,
2002-02-10, 01:17:00,VALID,917.504,VALID,0,VALID,98.2531,VALID,0.0169808,VALID,20.2257,VALID,150,VALID,0.0110677,
2002-02-10, 01:18:00,VALID,917.504,VALID,0,VALID,98.2493,VALID,0.0169808,VALID,20.2193,VALID,150,VALID,0.121795,
2002-02-10, 01:19:00,VALID,917.498,VALID,0,VALID,98.2315,VALID,0.0339617,VALID,20.2429,VALID,150,VALID,0.128125,
2002-02-10, 01:20:00,VALID,917.479,VALID,0,VALID,98.2022,VALID,0,VALID,20.2496,VALID,150,VALID,0.133868,
2002-02-10, 01:21:00,VALID,917.46,VALID,0,VALID,98.192,VALID,0.0169808,VALID,20.2526,VALID,150,VALID,0.0370536,
2002-02-10, 01:22:00,VALID,917.447,VALID,0,VALID,98.1653,VALID,0.0169808,VALID,20.2493,VALID,150,VALID,0.077908,
2002-02-10, 01:23:00,VALID,917.441,VALID,0,VALID,98.2073,VALID,0,VALID,20.2722,VALID,150,VALID,0.0426683,
2002-02-10, 01:24:00,VALID,917.442,VALID,0,VALID,98.103,VALID,-0.0169808,VALID,20.262,VALID,150,VALID,0.0276786,
2002-02-10, 01:25:00,VALID,917.439,VALID,0,VALID,98.0903,VALID,0,VALID,20.2451,VALID,149,VALID,0,
2002-02-10, 01:26:00,VALID,917.452,VALID,0,VALID,98.1526,VALID,0,VALID,20.2884,VALID,67,VALID,0,
2002-02-10, 01:27:00,VALID,917.461,VALID,0,VALID,98.1755,VALID,0,VALID,20.3005,VALID,48,VALID,0,
2002-02-10, 01:28:00,VALID,917.464,VALID,0,VALID,98.1882,VALID,0,VALID,20.3331,VALID,35,VALID,0,
2002-02-10, 01:29:00,VALID,917.461,VALID,0,VALID,98.1679,VALID,0,VALID,20.3562,VALID,35,VALID,0,
2002-02-10, 01:30:00,VALID,917.447,VALID,0,VALID,98.0789,VALID,0,VALID,20.3656,VALID,35,VALID,0,
2002-02-10, 01:31:00,VALID,917.433,VALID,0,VALID,97.925,VALID,0,VALID,20.3398,VALID,35,VALID,0,
2002-02-10, 01:32:00,VALID,917.4,VALID,0,VALID,97.794,VALID,0,VALID,20.311,VALID,92,VALID,0,
2002-02-10, 01:33:00,VALID,917.397,VALID,0,VALID,97.7813,VALID,0,VALID,20.2749,VALID,93,VALID,0,
2002-02-10, 01:34:00,VALID,917.421,VALID,0,VALID,97.705,VALID,0,VALID,20.2558,VALID,94,VALID,0,
2002-02-10, 01:35:00,VALID,917.442,VALID,0,VALID,97.7355,VALID,0,VALID,20.2327,VALID,137,VALID,0.258868,
2002-02-10, 01:36:00,VALID,917.462,VALID,0,VALID,97.7521,VALID,0,VALID,20.2391,VALID,138,VALID,0.296429,
2002-02-10, 01:37:00,VALID,917.468,VALID,0,VALID,97.7343,VALID,0,VALID,20.2585,VALID,138,VALID,0.314236,
2002-02-10, 01:38:00,VALID,917.472,VALID,0,VALID,97.6452,VALID,0.0169808,VALID,20.2493,VALID,138,VALID,0.191907,
2002-02-10, 01:39:00,VALID,917.438,VALID,0,VALID,97.6516,VALID,-0.0169808,VALID,20.2394,VALID,137,VALID,0.248884,
2002-02-10, 01:40:00,VALID,917.407,VALID,0,VALID,97.5194,VALID,0,VALID,20.2461,VALID,121,VALID,0.550253,
2002-02-10, 01:41:00,VALID,917.376,VALID,0,VALID,97.3769,VALID,0,VALID,20.2071,VALID,112,VALID,0.781473,
2002-02-10, 01:42:00,VALID,917.349,VALID,0,VALID,97.251,VALID,0.0169808,VALID,20.1778,VALID,103,VALID,0.723741,
2002-02-10, 01:43:00,VALID,917.333,VALID,0,VALID,97.1442,VALID,0,VALID,20.1524,VALID,102,VALID,0.530165,
2002-02-10, 01:44:00,VALID,917.326,VALID,0,VALID,97.1608,VALID,-0.0169808,VALID,20.1323,VALID,100,VALID,0.444227,
2002-02-10, 01:45:00,VALID,917.336,VALID,0,VALID,97.1951,VALID,0,VALID,20.1358,VALID,97,VALID,0.275288,
2002-02-10, 01:46:00,VALID,917.343,VALID,0,VALID,97.1951,VALID,0,VALID,20.1457,VALID,100,VALID,0.277995,
2002-02-10, 01:47:00,VALID,917.341,VALID,0,VALID,97.0717,VALID,-0.0169808,VALID,20.1492,VALID,111,VALID,0.27908,
2002-02-10, 01:48:00,VALID,917.337,VALID,0,VALID,97.1086,VALID,-0.0169808,VALID,20.146,VALID,109,VALID,0.237981,
2002-02-10, 01:49:00,VALID,917.309,VALID,0,VALID,97.0781,VALID,0,VALID,20.1487,VALID,127,VALID,0.612723,
2002-02-10, 01:50:00,VALID,917.29,VALID,0,VALID,96.9192,VALID,-0.0169808,VALID,20.149,VALID,144,VALID,0.948057,
2002-02-10, 01:51:00,VALID,917.274,VALID,0,VALID,96.8912,VALID,-0.0169808,VALID,20.1363,VALID,144,VALID,0.638616,
2002-02-10, 01:52:00,VALID,917.261,VALID,0,VALID,96.7767,VALID,0,VALID,20.1164,VALID,142,VALID,0.529948,
2002-02-10, 01:53:00,VALID,917.241,VALID,0,VALID,96.8225,VALID,0.0169808,VALID,20.1132,VALID,145,VALID,0.528446,
2002-02-10, 01:54:00,VALID,917.222,VALID,0,VALID,96.8365,VALID,0.101885,VALID,20.1146,VALID,137,VALID,0.448661,
2002-02-10, 01:55:00,VALID,917.201,VALID,0,VALID,96.792,VALID,0.101885,VALID,20.1089,VALID,138,VALID,0.631123,
2002-02-10, 01:56:00,VALID,917.186,VALID,0,VALID,96.7805,VALID,0.101885,VALID,20.089,VALID,139,VALID,0.601339,
2002-02-10, 01:57:00,VALID,917.175,VALID,0,VALID,96.8657,VALID,0.101885,VALID,20.096,VALID,135,VALID,0.302734,
2002-02-10, 01:58:00,VALID,917.169,VALID,0,VALID,96.7895,VALID,0.101885,VALID,20.0863,VALID,133,VALID,0.746962,
2002-02-10, 01:59:00,VALID,917.164,VALID,0,VALID,96.614,VALID,0.101885,VALID,20.0572,VALID,125,VALID,0.627821,
2002-02-10, 02:00:00,VALID,917.147,VALID,0,VALID,96.731,VALID,0.0679233,VALID,20.0443,VALID,128,VALID,0.567434,
2002-02-10, 02:01:00,VALID,917.137,VALID,0,VALID,96.8174,VALID,0.0849042,VALID,20.0538,VALID,122,VALID,0.370877,
2002-02-10, 02:02:00,VALID,917.133,VALID,0,VALID,96.82,VALID,0.101885,VALID,20.0505,VALID,134,VALID,0.455729,
2002-02-10, 02:03:00,VALID,917.13,VALID,0,VALID,96.7856,VALID,0.118866,VALID,20.0411,VALID,132,VALID,0.554688,
2002-02-10, 02:04:00,VALID,917.108,VALID,0,VALID,96.8416,VALID,0.101885,VALID,20.0319,VALID,134,VALID,0.499554,
2002-02-10, 02:05:00,VALID,917.09,VALID,0,VALID,96.853,VALID,0.101885,VALID,20.0056,VALID,122,VALID,0.477196,
2002-02-10, 02:06:00,VALID,917.051,VALID,0,VALID,96.867,VALID,0.101885,VALID,19.9964,VALID,127,VALID,0.515179,
2002-02-10, 02:07:00,VALID,917.024,VALID,0,VALID,96.9281,VALID,0.0849042,VALID,19.9636,VALID,127,VALID,0.229601,
2002-02-10, 02:08:00,VALID,916.995,VALID,0,VALID,96.9993,VALID,0.0849042,VALID,19.9541,VALID,116,VALID,0.366186,
2002-02-10, 02:09:00,VALID,916.98,VALID,0,VALID,97.0908,VALID,0,VALID,19.9363,VALID,103,VALID,0.765625,
2002-02-10, 02:10:00,VALID,916.976,VALID,0,VALID,97.2154,VALID,0,VALID,19.9358,VALID,97,VALID,0.482475,
2002-02-10, 02:11:00,VALID,916.984,VALID,0,VALID,97.2943,VALID,0,VALID,19.9233,VALID,85,VALID,0.427455,
2002-02-10, 02:12:00,VALID,916.999,VALID,0,VALID,97.3388,VALID,0.0169808,VALID,19.8905,VALID,59,VALID,0.261285,
2002-02-10, 02:13:00,VALID,916.994,VALID,0,VALID,97.3998,VALID,0.0169808,VALID,19.8779,VALID,38,VALID,0.200521,
2002-02-10, 02:14:00,VALID,916.99,VALID,0,VALID,97.4494,VALID,-0.0169808,VALID,19.862,VALID,343,VALID,0.374783,
2002-02-10, 02:15:00,VALID,916.976,VALID,0,VALID,97.5066,VALID,0,VALID,19.8461,VALID,342,VALID,0.234375,
2002-02-10, 02:16:00,VALID,916.948,VALID,0,VALID,97.5079,VALID,0,VALID,19.8264,VALID,348,VALID,0.375868,
2002-02-10, 02:17:00,VALID,916.92,VALID,0,VALID,97.4914,VALID,0,VALID,19.8068,VALID,4,VALID,0.46224,
2002-02-10, 02:18:00,VALID,916.891,VALID,0,VALID,97.3782,VALID,0,VALID,19.775,VALID,5,VALID,0.283654,
2002-02-10, 02:19:00,VALID,916.875,VALID,0,VALID,97.4532,VALID,0,VALID,19.7489,VALID,5,VALID,0.102902,
2002-02-10, 02:20:00,VALID,916.876,VALID,0,VALID,97.4914,VALID,0.0169808,VALID,19.7422,VALID,14,VALID,0.482264,
2002-02-10, 02:21:00,VALID,916.881,VALID,0,VALID,97.5206,VALID,0.0169808,VALID,19.7231,VALID,19,VALID,0.393973,
2002-02-10, 02:22:00,VALID,916.876,VALID,0,VALID,97.5473,VALID,0,VALID,19.7171,VALID,35,VALID,0.589627,
2002-02-10, 02:23:00,VALID,916.858,VALID,0,VALID,97.6084,VALID,-0.0169808,VALID,19.7074,VALID,54,VALID,0.722556,
2002-02-10, 02:24:00,VALID,916.843,VALID,0,VALID,97.6363,VALID,-0.101885,VALID,19.689,VALID,64,VALID,0.892857,
2002-02-10, 02:25:00,VALID,916.829,VALID,0,VALID,97.761,VALID,-0.101885,VALID,19.6928,VALID,62,VALID,0.985642,
2002-02-10, 02:26:00,VALID,916.806,VALID,0,VALID,97.8576,VALID,-0.135847,VALID,19.6992,VALID,61,VALID,0.854018,
2002-02-10, 02:27:00,VALID,916.794,VALID,0,VALID,97.8487,VALID,-0.101885,VALID,19.6923,VALID,76,VALID,0.873915,
2002-02-10, 02:28:00,VALID,916.78,VALID,0,VALID,97.9428,VALID,-0.118866,VALID,19.6858,VALID,76,VALID,0.825304,
2002-02-10, 02:29:00,VALID,916.767,VALID,0,VALID,98.0305,VALID,-0.118866,VALID,19.6895,VALID,78,VALID,0.764757,
2002-02-10, 02:30:00,VALID,916.74,VALID,0,VALID,98.0216,VALID,-0.101885,VALID,19.6895,VALID,103,VALID,0.601974,
2002-02-10, 02:31:00,VALID,916.725,VALID,0,VALID,97.9797,VALID,-0.118866,VALID,19.6639,VALID,130,VALID,0.692057,
2002-02-10, 02:32:00,VALID,916.692,VALID,0,VALID,98.0127,VALID,-0.101885,VALID,19.6319,VALID,131,VALID,0.582465,
2002-02-10, 02:33:00,VALID,916.676,VALID,0,VALID,98.0077,VALID,-0.0849042,VALID,19.5991,VALID,143,VALID,0.648237,
2002-02-10, 02:34:00,VALID,916.675,VALID,0,VALID,98.0382,VALID,-0.101885,VALID,19.5795,VALID,141,VALID,0.447098,
2002-02-10, 02:35:00,VALID,916.655,VALID,0,VALID,98.0496,VALID,-0.101885,VALID,19.5668,VALID,140,VALID,0.554899,
2002-02-10, 02:36:00,VALID,916.638,VALID,0,VALID,98.0839,VALID,-0.101885,VALID,19.5372,VALID,141,VALID,0.266518,
2002-02-10, 02:37:00,VALID,916.624,VALID,0,VALID,97.897,VALID,-0.101885,VALID,19.4865,VALID,117,VALID,0.263455,
2002-02-10, 02:38:00,VALID,916.607,VALID,0,VALID,97.761,VALID,-0.0849042,VALID,19.3919,VALID,57,VALID,0.592548,
2002-02-10, 02:39:00,VALID,916.595,VALID,0,VALID,97.7419,VALID,0,VALID,19.3166,VALID,52,VALID,0.608259,
2002-02-10, 02:40:00,VALID,916.599,VALID,0,VALID,97.8207,VALID,0.0169808,VALID,19.2751,VALID,51,VALID,0.673353,
2002-02-10, 02:41:00,VALID,916.588,VALID,0,VALID,98.1742,VALID,-0.0169808,VALID,19.2947,VALID,61,VALID,0.69442,
2002-02-10, 02:42:00,VALID,916.573,VALID,0,VALID,98.5621,VALID,0,VALID,19.3976,VALID,94,VALID,0.673828,
2002-02-10, 02:43:00,VALID,916.565,VALID,0,VALID,98.5519,VALID,0,VALID,19.4649,VALID,123,VALID,0.764323,
2002-02-10, 02:44:00,VALID,916.535,VALID,0,VALID,98.5443,VALID,0.0169808,VALID,19.5039,VALID,130,VALID,0.976997,
2002-02-10, 02:45:00,VALID,916.523,VALID,0,VALID,98.5722,VALID,0,VALID,19.5367,VALID,132,VALID,1.04194,
2002-02-10, 02:46:00,VALID,916.503,VALID,0,VALID,98.5557,VALID,-0.0169808,VALID,19.5628,VALID,135,VALID,0.968099,
2002-02-10, 02:47:00,VALID,916.473,VALID,0,VALID,98.5201,VALID,0,VALID,19.5521,VALID,137,VALID,0.851345,
2002-02-10, 02:48:00,VALID,916.449,VALID,0,VALID,98.4451,VALID,-0.0169808,VALID,19.5365,VALID,144,VALID,1.03045,
2002-02-10, 02:49:00,VALID,916.438,VALID,0,VALID,98.3535,VALID,-0.0169808,VALID,19.491,VALID,144,VALID,1.31741,
2002-02-10, 02:50:00,VALID,916.433,VALID,0,VALID,98.3472,VALID,0,VALID,19.4495,VALID,146,VALID,1.24472,
2002-02-10, 02:51:00,VALID,916.425,VALID,0,VALID,98.4069,VALID,0.0169808,VALID,19.4267,VALID,142,VALID,0.914063,
2002-02-10, 02:52:00,VALID,916.414,VALID,0,VALID,98.4108,VALID,0,VALID,19.4142,VALID,134,VALID,0.652995,
2002-02-10, 02:53:00,VALID,916.39,VALID,0,VALID,98.4146,VALID,-0.0169808,VALID,19.3819,VALID,145,VALID,0.860577,
2002-02-10, 02:54:00,VALID,916.376,VALID,0,VALID,98.4781,VALID,0,VALID,19.369,VALID,128,VALID,0.785268,
2002-02-10, 02:55:00,VALID,916.373,VALID,0,VALID,98.4731,VALID,-0.0169808,VALID,19.3427,VALID,123,VALID,0.498522,
2002-02-10, 02:56:00,VALID,916.386,VALID,0,VALID,98.5265,VALID,0,VALID,19.3367,VALID,84,VALID,0.517857,
2002-02-10, 02:57:00,VALID,916.389,VALID,0,VALID,98.557,VALID,-0.0169808,VALID,19.33,VALID,108,VALID,0.983073,
2002-02-10, 02:58:00,VALID,916.393,VALID,0,VALID,98.5722,VALID,0,VALID,19.3236,VALID,106,VALID,0.781684,
2002-02-10, 02:59:00,VALID,916.398,VALID,0,VALID,98.6066,VALID,0,VALID,19.3171,VALID,108,VALID,0.8852,
2002-02-10, 03:00:00,VALID,916.385,VALID,0,VALID,98.674,VALID,0,VALID,19.3266,VALID,115,VALID,0.834293,
2002-02-10, 03:01:00,VALID,916.387,VALID,0,VALID,98.7159,VALID,-0.0169808,VALID,19.3492,VALID,128,VALID,0.682943,
2002-02-10, 03:02:00,VALID,916.394,VALID,0,VALID,98.7465,VALID,0,VALID,19.369,VALID,142,VALID,0.815104,
2002-02-10, 03:03:00,VALID,916.387,VALID,0,VALID,98.7973,VALID,0,VALID,19.3815,VALID,137,VALID,1.22356,
2002-02-10, 03:04:00,VALID,916.386,VALID,0,VALID,98.8278,VALID,-0.0339617,VALID,19.4272,VALID,142,VALID,1.14152,
2002-02-10, 03:05:00,VALID,916.389,VALID,0,VALID,98.8456,VALID,0,VALID,19.4597,VALID,142,VALID,0.831715,
2002-02-10, 03:06:00,VALID,916.38,VALID,0,VALID,98.8609,VALID,0,VALID,19.4759,VALID,148,VALID,0.897768,
2002-02-10, 03:07:00,VALID,916.394,VALID,0,VALID,98.8698,VALID,-0.0169808,VALID,19.4816,VALID,151,VALID,1.02561,
2002-02-10, 03:08:00,VALID,916.396,VALID,0,VALID,98.8609,VALID,0,VALID,19.4918,VALID,141,VALID,1.21294,
2002-02-10, 03:09:00,VALID,916.393,VALID,0,VALID,98.8406,VALID,0,VALID,19.4952,VALID,161,VALID,0.64933,
2002-02-10, 03:10:00,VALID,916.386,VALID,0,VALID,98.8329,VALID,0.0169808,VALID,19.4853,VALID,145,VALID,1.3106,
2002-02-10, 03:11:00,VALID,916.37,VALID,0,VALID,98.8253,VALID,-0.0339617,VALID,19.4627,VALID,138,VALID,1.07031,
2002-02-10, 03:12:00,VALID,916.35,VALID,0,VALID,98.8227,VALID,0,VALID,19.4433,VALID,114,VALID,1.17296,
2002-02-10, 03:13:00,VALID,916.315,VALID,0,VALID,98.81,VALID,0,VALID,19.4138,VALID,146,VALID,0.961806,
2002-02-10, 03:14:00,VALID,916.307,VALID,0,VALID,98.7897,VALID,0,VALID,19.3887,VALID,134,VALID,1.0306,
2002-02-10, 03:15:00,VALID,916.309,VALID,0,VALID,98.7922,VALID,0,VALID,19.3526,VALID,116,VALID,1.17578,
2002-02-10, 03:16:00,VALID,916.292,VALID,0,VALID,98.7884,VALID,0,VALID,19.3206,VALID,113,VALID,1.13824,
2002-02-10, 03:17:00,VALID,916.292,VALID,0,VALID,98.7986,VALID,0,VALID,19.2885,VALID,123,VALID,1.13867,
2002-02-10, 03:18:00,VALID,916.273,VALID,0,VALID,98.8049,VALID,-0.0169808,VALID,19.2617,VALID,91,VALID,0.625601,
2002-02-10, 03:19:00,VALID,916.26,VALID,0,VALID,98.8177,VALID,0.0169808,VALID,19.2423,VALID,117,VALID,0.940848,
2002-02-10, 03:20:00,VALID,916.251,VALID,0,VALID,98.8075,VALID,0,VALID,19.2401,VALID,108,VALID,0.855152,
2002-02-10, 03:21:00,VALID,916.239,VALID,0,VALID,98.763,VALID,0.0169808,VALID,19.178,VALID,121,VALID,1.15692,
2002-02-10, 03:22:00,VALID,916.237,VALID,0,VALID,98.7083,VALID,0,VALID,19.1231,VALID,111,VALID,1.20877,
2002-02-10, 03:23:00,VALID,916.224,VALID,0,VALID,98.6943,VALID,0,VALID,19.0811,VALID,91,VALID,1.41086,
2002-02-10, 03:24:00,VALID,916.222,VALID,0,VALID,98.7185,VALID,0,VALID,19.0719,VALID,74,VALID,1.04174,
2002-02-10, 03:25:00,VALID,916.197,VALID,0,VALID,98.6956,VALID,0.0169808,VALID,19.0523,VALID,68,VALID,0.997044,
2002-02-10, 03:26:00,VALID,916.178,VALID,0,VALID,98.6714,VALID,0,VALID,19.0297,VALID,71,VALID,0.933036,
2002-02-10, 03:27:00,VALID,916.162,VALID,0,VALID,98.6752,VALID,0,VALID,19.0235,VALID,76,VALID,0.909505,
2002-02-10, 03:28:00,VALID,916.14,VALID,0,VALID,98.6676,VALID,-0.0169808,VALID,19.0105,VALID,74,VALID,0.592882,
2002-02-10, 03:29:00,VALID,916.14,VALID,0,VALID,98.6435,VALID,0,VALID,18.9976,VALID,92,VALID,0.677734,
2002-02-10, 03:30:00,VALID,916.129,VALID,0,VALID,98.6549,VALID,0.0169808,VALID,18.9884,VALID,87,VALID,0.73602,
2002-02-10, 03:31:00,VALID,916.108,VALID,0,VALID,98.6511,VALID,0.0169808,VALID,18.978,VALID,91,VALID,0.701389,
2002-02-10, 03:32:00,VALID,916.095,VALID,0,VALID,98.6498,VALID,0,VALID,18.9723,VALID,81,VALID,0.760851,
2002-02-10, 03:33:00,VALID,916.09,VALID,0,VALID,98.6765,VALID,0,VALID,18.9591,VALID,88,VALID,1.10056,
2002-02-10, 03:34:00,VALID,916.079,VALID,0,VALID,98.7325,VALID,-0.0339617,VALID,18.9753,VALID,93,VALID,1.09174,
2002-02-10, 03:35:00,VALID,916.065,VALID,0,VALID,98.7706,VALID,-0.0169808,VALID,18.9946,VALID,103,VALID,1.0473,
2002-02-10, 03:36:00,VALID,916.066,VALID,0,VALID,98.8075,VALID,-0.0169808,VALID,19.0205,VALID,98,VALID,0.952679,
2002-02-10, 03:37:00,VALID,916.058,VALID,0,VALID,98.7592,VALID,-0.0169808,VALID,19.0177,VALID,87,VALID,0.901259,
2002-02-10, 03:38:00,VALID,916.049,VALID,0,VALID,98.6867,VALID,-0.0169808,VALID,18.9859,VALID,88,VALID,0.84375,